TimeCET,TemperatureF,Dew PointF,Humidity,Sea Level PressureIn,VisibilityMPH,Wind Direction,Wind SpeedMPH,Gust SpeedMPH,PrecipitationIn,Events,Conditions,WindDirDegrees,DateUTC
12:25 AM,30.2,28.4,93,30.06,6.2,NW,5.8,-,N/A,,Overcast,320,2013-02-08 23:25:00
12:55 AM,30.2,28.4,93,30.06,6.2,NW,4.6,-,N/A,,Overcast,320,2013-02-08 23:55:00
1:00 AM,30,29,92,30.10,7,NNW,4.5,,,,Partly Cloudy,330,2013-02-09 00:00:00
1:25 AM,30.2,28.4,93,30.06,6.2,NNW,4.6,-,N/A,,Mostly Cloudy,340,2013-02-09 00:25:00
1:55 AM,28.4,28.4,100,30.06,4.3,WNW,3.5,-,N/A,,Partly Cloudy,300,2013-02-09 00:55:00
2:25 AM,28.4,28.4,100,30.06,3.1,Variable,2.3,-,N/A,,Overcast,0,2013-02-09 01:25:00
2:55 AM,28.4,28.4,100,30.06,-9999.0,NW,3.5,-,N/A,,Overcast,310,2013-02-09 01:55:00
3:25 AM,28.4,28.4,100,30.06,5.0,NNW,4.6,-,N/A,,Overcast,330,2013-02-09 02:25:00
3:55 AM,28.4,28.4,100,30.06,3.1,Variable,2.3,-,N/A,,Mostly Cloudy,0,2013-02-09 02:55:00
4:00 AM,29,28,96,30.10,3,West,4.5,,,,Mist,280,2013-02-09 03:00:00
4:25 AM,28.4,28.4,100,30.06,3.1,NW,3.5,-,N/A,,Overcast,310,2013-02-09 03:25:00
4:55 AM,28.4,28.4,100,30.06,3.1,Variable,2.3,-,N/A,,Overcast,0,2013-02-09 03:55:00
5:25 AM,28.4,28.4,100,30.06,3.1,NW,3.5,-,N/A,,Overcast,310,2013-02-09 04:25:00
5:55 AM,28.4,28.4,100,30.06,-9999.0,Variable,1.2,-,N/A,,Overcast,0,2013-02-09 04:55:00
6:25 AM,28.4,28.4,100,30.06,3.1,Variable,1.2,-,N/A,,Mostly Cloudy,0,2013-02-09 05:25:00
6:55 AM,28.4,28.4,100,30.06,-9999.0,WNW,2.3,-,N/A,Snow,Light Snow,300,2013-02-09 05:55:00
7:00 AM,28,28,99,30.12,2,WNW,4.5,,,Snow,Light Snow Showers,300,2013-02-09 06:00:00
7:25 AM,28.4,28.4,100,30.09,-9999.0,Variable,2.3,-,N/A,,Overcast,0,2013-02-09 06:25:00
7:55 AM,28.4,28.4,100,30.09,-9999.0,NNW,3.5,-,N/A,,Overcast,330,2013-02-09 06:55:00
8:25 AM,28.4,28.4,100,30.09,1.6,Variable,2.3,-,N/A,,Overcast,0,2013-02-09 07:25:00
8:55 AM,28.4,28.4,100,30.09,1.2,Variable,2.3,-,N/A,,Mostly Cloudy,0,2013-02-09 07:55:00
9:25 AM,28.4,28.4,100,30.09,1.3,Variable,1.2,-,N/A,,Overcast,0,2013-02-09 08:25:00
9:55 AM,28.4,28.4,100,30.09,-9999.0,Variable,2.3,-,N/A,,Overcast,0,2013-02-09 08:55:00
10:00 AM,29,28,95,30.15,3,WNW,2.2,,,,Mist,290,2013-02-09 09:00:00
10:25 AM,30.2,28.4,93,30.12,4.3,Variable,2.3,-,N/A,,Overcast,0,2013-02-09 09:25:00
10:55 AM,30.2,26.6,86,30.12,5.0,Variable,1.2,-,N/A,,Mostly Cloudy,0,2013-02-09 09:55:00
11:25 AM,30.2,28.4,93,30.12,5.6,Variable,2.3,-,N/A,,Mostly Cloudy,0,2013-02-09 10:25:00
11:55 AM,32.0,28.4,87,30.12,6.2,Variable,2.3,-,N/A,,Mostly Cloudy,0,2013-02-09 10:55:00
12:25 PM,30.2,26.6,86,30.12,6.2,WNW,4.6,-,N/A,,Mostly Cloudy,300,2013-02-09 11:25:00
12:55 PM,32.0,26.6,80,30.12,6.2,Variable,2.3,-,N/A,,Mostly Cloudy,0,2013-02-09 11:55:00
1:00 PM,32,27,74,30.15,8,,2.2,,,,Partly Cloudy,,2013-02-09 12:00:00
1:25 PM,32.0,28.4,87,30.12,6.2,West,4.6,-,N/A,,Mostly Cloudy,260,2013-02-09 12:25:00
1:55 PM,32.0,28.4,87,30.09,6.2,SW,3.5,-,N/A,,Overcast,220,2013-02-09 12:55:00
2:25 PM,33.8,26.6,75,30.09,6.2,Variable,3.5,-,N/A,,Mostly Cloudy,0,2013-02-09 13:25:00
2:55 PM,33.8,26.6,75,30.09,6.2,WSW,5.8,-,N/A,,Partly Cloudy,250,2013-02-09 13:55:00
3:25 PM,33.8,28.4,81,30.09,6.2,West,4.6,-,N/A,,Partly Cloudy,260,2013-02-09 14:25:00
3:55 PM,32.0,26.6,80,30.09,6.2,WSW,5.8,-,N/A,,Unknown,240,2013-02-09 14:55:00
4:00 PM,33,27,70,30.12,8,WSW,4.5,,,,Overcast,240,2013-02-09 15:00:00
4:55 PM,32.0,26.6,80,30.09,6.2,West,4.6,-,N/A,,Mostly Cloudy,270,2013-02-09 15:55:00
5:25 PM,32.0,26.6,80,30.06,6.2,West,3.5,-,N/A,,Unknown,260,2013-02-09 16:25:00
5:55 PM,30.2,26.6,86,30.06,6.2,SW,8.1,-,N/A,,Unknown,220,2013-02-09 16:55:00
6:25 PM,30.2,26.6,86,30.06,6.2,WSW,4.6,-,N/A,,Unknown,240,2013-02-09 17:25:00
6:55 PM,28.4,26.6,93,30.06,6.2,SSW,3.5,-,N/A,,Unknown,210,2013-02-09 17:55:00
7:00 PM,30,26,80,30.12,9,SSW,2.2,,,,Partly Cloudy,210,2013-02-09 18:00:00
7:25 PM,30.2,26.6,86,30.06,6.2,South,2.3,-,N/A,,Unknown,170,2013-02-09 18:25:00
7:55 PM,30.2,26.6,86,30.06,6.2,SSE,4.6,-,N/A,,Unknown,160,2013-02-09 18:55:00
8:25 PM,30.2,26.6,86,30.06,6.2,South,4.6,-,N/A,,Partly Cloudy,170,2013-02-09 19:25:00
8:55 PM,30.2,26.6,86,30.04,6.2,South,3.5,-,N/A,,Unknown,170,2013-02-09 19:55:00
9:25 PM,30.2,26.6,86,30.04,6.2,South,4.6,-,N/A,,Unknown,180,2013-02-09 20:25:00
9:55 PM,30.2,26.6,86,30.04,6.2,South,4.6,-,N/A,,Scattered Clouds,180,2013-02-09 20:55:00
10:00 PM,30,26,78,30.08,8,South,4.5,,,,Partly Cloudy,190,2013-02-09 21:00:00
10:25 PM,30.2,26.6,86,30.04,6.2,South,4.6,-,N/A,,Scattered Clouds,190,2013-02-09 21:25:00
11:25 PM,30.2,26.6,86,30.04,6.2,SSW,4.6,-,N/A,,Mostly Cloudy,200,2013-02-09 22:25:00
11:55 PM,30.2,26.6,86,30.01,6.2,SSW,4.6,-,N/A,,Mostly Cloudy,200,2013-02-09 22:55:00